Location: Banios
(43.0451°N, 0.2335°E)
Time: 13:03:03
(UTC+00:00)

A-11 Canister half - Pass Details

Date: 16 May 2021
Orbit: 1513 x 1686 km, 47.2° (Epoch: 14 June)

Event Time Altitude Azimuth Distance (km) Brightness Sun altitude
Rises 12:12:49 0° 202° (SSW) 4,715 11.9 65.9°
Reaches altitude 10° 12:16:17 10° 193° (SSW) 3,713 11.6 65.8°
Maximum altitude 12:24:17 33° 134° (SE) 2,328 10.7 65.4°
Drops below altitude 10° 12:32:11 10° 74° (ENE) 3,674 11.0 65.0°
Sets 12:35:34 0° 66° (ENE) 4,660 11.3 64.7°
